Riverside, CA

7:02 AM PDT on August 30, 2016 (GMT -0700)
March Air Reserve Base

Weather History for KRIV - December, 2012

Change the Weather History Date:

Friday, December 28, 2012

  Actual Average Record
Temperature  
Mean Temperature 44 °F -  
Max Temperature 57 °F 63 °F 78 °F (2011)
Min Temperature 30 °F 38 °F 23 °F (2015)
Degree Days  
Heating Degree Days 22    
Moisture  
Dew Point 32 °F    
Average Humidity 70    
Maximum Humidity 100    
Minimum Humidity 33    
Precipitation  
Precipitation 0.00 in - - ()
Sea Level Pressure  
Sea Level Pressure 30.12 in    
Wind  
Wind Speed 2 mph (ESE)    
Max Wind Speed 8 mph    
Max Gust Speed -    
Visibility 10 miles    
Events      
Averages and records for this station are not official NWS values.
T = Trace of Precipitation, MM = Missing Value Source: NWS Daily Summary

Daily Weather History Graph

Daily Weather History Graph

Search for Another Location

Airport or City:

Trip Planner

Search our weather history database for the weather conditions in past years. The results will help you decide how hot, cold, wet, or windy it might be!

Date:

Astronomy

Dec. 28, 2012 Rise Set
Actual Time 6:53 AM PST 4:48 PM PST
Civil Twilight 6:25 AM PST 5:16 PM PST
Nautical Twilight 5:54 AM PST 5:47 PM PST
Astronomical Twilight 5:23 AM PST 6:17 PM PST
Moon 5:26 PM PST (12/28) 6:53 AM PST (12/28)
Length of Visible Light 10h 50m
Length of Day
9h 55m
Full, 100% of the Moon is Illuminated
Dec 28
Full
Jan 4
Last Quarter
Jan 11
New
Jan 18
First Quarter
Jan 26
Full

Hourly Weather History & Observations

Time (PST) Temp. Windchill Dew Point Humidity Pressure Visibility Wind Dir Wind Speed Gust Speed Precip Events Conditions
12:58 AM 34.5 °F - 34.5 °F 100% 30.12 in 10.0 mi NW 1.2 mph - N/A   Clear
1:58 AM 34.3 °F - 34.3 °F 100% 30.13 in 10.0 mi Calm Calm - N/A   Clear
2:58 AM 33.3 °F 28.9 °F 33.3 °F 100% 30.12 in 10.0 mi SSW 4.6 mph - N/A   Clear
3:58 AM 31.8 °F - 31.6 °F 99% 30.11 in 10.0 mi South 2.3 mph - N/A   Clear
4:58 AM 32.7 °F - 32.7 °F 100% 30.12 in 10.0 mi NE 1.2 mph - N/A   Clear
5:58 AM 30.2 °F - 30.0 °F 99% 30.15 in 10.0 mi NNW 1.2 mph - N/A   Clear
6:58 AM 30.0 °F - 30.0 °F 100% 30.17 in 10.0 mi Calm Calm - N/A   Clear
7:58 AM 34.9 °F - 34.9 °F 100% 30.17 in 10.0 mi Calm Calm - N/A   Clear
8:58 AM 41.5 °F - 41.2 °F 99% 30.19 in 10.0 mi Calm Calm - N/A   Clear
9:58 AM 47.5 °F - 40.5 °F 77% 30.19 in 10.0 mi Variable 1.2 mph - N/A   Clear
10:58 AM 52.9 °F - 39.2 °F 60% 30.16 in 10.0 mi SE 1.2 mph - N/A   Clear
11:58 AM 55.6 °F - 35.4 °F 47% 30.12 in 10.0 mi East 3.5 mph - N/A   Clear
12:58 PM 57.2 °F - 32.2 °F 39% 30.10 in 10.0 mi East 1.2 mph - N/A   Clear
1:58 PM 57.4 °F - 30.2 °F 36% 30.09 in 10.0 mi SW 4.6 mph - N/A   Clear
2:58 PM 56.8 °F - 27.7 °F 33% 30.08 in 10.0 mi Calm Calm - N/A   Clear
3:58 PM 56.3 °F - 27.9 °F 34% 30.08 in 10.0 mi East 4.6 mph - N/A   Clear
4:58 PM 52.5 °F - 28.8 °F 40% 30.09 in 10.0 mi East 8.1 mph - N/A   Clear
5:58 PM 48.9 °F - 27.1 °F 43% 30.10 in 10.0 mi NNE 2.3 mph - N/A   Scattered Clouds
6:58 PM 48.6 °F - 28.6 °F 46% 30.11 in 10.0 mi ESE 3.5 mph - N/A   Scattered Clouds
7:58 PM 45.3 °F 42.3 °F 30.6 °F 56% 30.11 in 10.0 mi SE 5.8 mph - N/A   Clear
8:58 PM 40.5 °F - 31.3 °F 70% 30.11 in 10.0 mi Calm Calm - N/A   Partly Cloudy
9:58 PM 40.6 °F - 32.7 °F 73% 30.11 in 10.0 mi Calm Calm - N/A   Scattered Clouds
10:58 PM 41.4 °F 38.4 °F 30.9 °F 66% 30.10 in 10.0 mi SSE 4.6 mph - N/A   Mostly Cloudy
11:58 PM 42.3 °F - 29.3 °F 60% 30.09 in 10.0 mi Calm Calm - N/A   Clear